Location: Zagreb
(45.8000°N, 16.0000°E)
Time: 20:27:07
(UTC+01:00)

Oscar 11 - Pass Details

Date: 02 November 2020
Orbit: 613 x 625 km, 97.6° (Epoch: 01 December)

Event Time Altitude Azimuth Distance (km) Brightness Sun altitude
Rises 18:30:38 0° 207° (SSW) 2,883 10.9 -19.6°
Reaches altitude 10° 18:33:28 10° 227° (SW) 1,980 10.3 -20.1°
Maximum altitude 18:36:21 17° 269° (W) 1,551 10.1 -20.6°
Drops below altitude 10° 18:39:15 10° 311° (NW) 1,986 10.3 -21.1°
Sets 18:42:07 0° 332° (NNW) 2,896 10.9 -21.6°
